EB1AYW-13 Weather Reports


time (UTC)temp
C
wind
direction
speed
KPH
gust
KPH
rain 1hr
cm
rain 24hr
cm
rain mn
cm
humidity
%
barometer
mb
20260508060750 36 0.0 0.0 0.00 0.00 0.00 21 999.7
20260508055750 39 0.0 0.0 0.00 0.00 0.00 19 998.9
20260508054753 41 0.0 0.0 0.00 0.00 0.00 17 998.4
20260508053750 37 0.0 0.0 0.00 0.00 0.00 21 999.6
20260508052750 35 0.0 0.0 0.00 0.00 0.00 22 1000.0
20260508051750 38 0.0 0.0 0.00 0.00 0.00 19 999.1
20260508050750 35 0.0 0.0 0.00 0.00 0.00 22 999.8
20260508045750 37 0.0 0.0 0.00 0.00 0.00 20 999.2
20260508044750 38 0.0 0.0 0.00 0.00 0.00 20 999.2
20260508043750 36 0.0 0.0 0.00 0.00 0.00 21 999.6
20260508042750 35 0.0 0.0 0.00 0.00 0.00 23 1000.0
20260508041750 38 0.0 0.0 0.00 0.00 0.00 20 999.1
20260508040750 37 0.0 0.0 0.00 0.00 0.00 21 999.3
20260508035750 35 0.0 0.0 0.00 0.00 0.00 23 999.9
20260508034750 35 0.0 0.0 0.00 0.00 0.00 22 999.9
20260508033750 40 0.0 0.0 0.00 0.00 0.00 19 998.9
20260508032750 34 0.0 0.0 0.00 0.00 0.00 23 1000.5
20260508031750 41 0.0 0.0 0.00 0.00 0.00 18 998.7
20260508030750 33 0.0 0.0 0.00 0.00 0.00 24 1000.4
20260508025750 35 0.0 0.0 0.00 0.00 0.00 23 999.9
20260508024750 34 0.0 0.0 0.00 0.00 0.00 24 1000.1
20260508023750 33 0.0 0.0 0.00 0.00 0.00 25 1000.5
20260508022750 33 0.0 0.0 0.00 0.00 0.00 25 1000.8
20260508021750 35 0.0 0.0 0.00 0.00 0.00 23 1000.4
20260508020750 41 0.0 0.0 0.00 0.00 0.00 17 998.9
20260508015750 40 0.0 0.0 0.00 0.00 0.00 19 999.6
20260508014750 40 0.0 0.0 0.00 0.00 0.00 18 999.6
20260508013750 39 0.0 0.0 0.00 0.00 0.00 19 999.7
20260508012750 37 0.0 0.0 0.00 0.00 0.00 21 1000.3
20260508011750 37 0.0 0.0 0.00 0.00 0.00 21 1000.4
20260508010750 37 0.0 0.0 0.00 0.00 0.00 21 1000.6
20260508005750 36 0.0 0.0 0.00 0.00 0.00 21 1001.0
20260508004750 38 0.0 0.0 0.00 0.00 0.00 18 1000.3
20260508003750 37 0.0 0.0 0.00 0.00 0.00 20 1000.7
20260508002750 39 0.0 0.0 0.00 0.00 0.00 19 1000.4
20260508001750 44 0.0 0.0 0.00 0.00 0.00 16 999.2
20260508000750 45 0.0 0.0 0.00 0.00 0.00 15 999.1
20260507235750 45 0.0 0.0 0.00 0.00 0.00 14 998.9
20260507234750 46 0.0 0.0 0.00 0.00 0.00 14 998.7
20260507233750 43 0.0 0.0 0.00 0.00 0.00 15 999.5
20260507232750 45 0.0 0.0 0.00 0.00 0.00 14 999.2
20260507231751 42 0.0 0.0 0.00 0.00 0.00 17 999.8
20260507230750 45 0.0 0.0 0.00 0.00 0.00 14 999.0
20260507225750 46 0.0 0.0 0.00 0.00 0.00 14 998.8
20260507224750 45 0.0 0.0 0.00 0.00 0.00 14 999.1
20260507223750 45 0.0 0.0 0.00 0.00 0.00 14 999.3
20260507222750 45 0.0 0.0 0.00 0.00 0.00 15 999.2
20260507221750 45 0.0 0.0 0.00 0.00 0.00 15 999.3
20260507220750 44 0.0 0.0 0.00 0.00 0.00 15 999.4
20260507215750 43 0.0 0.0 0.00 0.00 0.00 15 999.6
20260507214750 45 0.0 0.0 0.00 0.00 0.00 14 999.3
20260507213750 47 0.0 0.0 0.00 0.00 0.00 13 998.7
20260507212750 45 0.0 0.0 0.00 0.00 0.00 15 999.0
20260507211750 33 0.0 0.0 0.00 0.00 0.00 24 1002.0
20260507210750 42 0.0 0.0 0.00 0.00 0.00 16 999.4
20260507205750 42 0.0 0.0 0.00 0.00 0.00 17 999.1
20260507204750 41 0.0 0.0 0.00 0.00 0.00 17 999.3
20260507203750 45 0.0 0.0 0.00 0.00 0.00 15 998.3
20260507202750 38 0.0 0.0 0.00 0.00 0.00 19 999.7
20260507201750 42 0.0 0.0 0.00 0.00 0.00 17 998.7
20260507200749 41 0.0 0.0 0.00 0.00 0.00 17 999.0
20260507195750 38 0.0 0.0 0.00 0.00 0.00 18 999.4
20260507194750 41 0.0 0.0 0.00 0.00 0.00 16 998.4
20260507193750 40 0.0 0.0 0.00 0.00 0.00 17 998.8
20260507192750 40 0.0 0.0 0.00 0.00 0.00 17 998.6
20260507191750 43 0.0 0.0 0.00 0.00 0.00 15 997.8
20260507190750 37 0.0 0.0 0.00 0.00 0.00 18 999.2
20260507185749 41 0.0 0.0 0.00 0.00 0.00 15 998.0
20260507184750 40 0.0 0.0 0.00 0.00 0.00 16 998.2
20260507183750 40 0.0 0.0 0.00 0.00 0.00 16 998.3
20260507182749 48 0.0 0.0 0.00 0.00 0.00 10 995.9
20260507181750 47 0.0 0.0 0.00 0.00 0.00 11 996.2
20260507180750 46 0.0 0.0 0.00 0.00 0.00 12 996.5
20260507175750 47 0.0 0.0 0.00 0.00 0.00 11 996.2
20260507174749 46 0.0 0.0 0.00 0.00 0.00 12 996.5
20260507173749 46 0.0 0.0 0.00 0.00 0.00 12 996.5
20260507172750 44 0.0 0.0 0.00 0.00 0.00 13 997.1
20260507171750 43 0.0 0.0 0.00 0.00 0.00 13 997.2
20260507170749 44 0.0 0.0 0.00 0.00 0.00 13 997.0
20260507165749 46 0.0 0.0 0.00 0.00 0.00 11 996.5
20260507164749 46 0.0 0.0 0.00 0.00 0.00 11 996.3
20260507163749 45 0.0 0.0 0.00 0.00 0.00 12 996.5
20260507162749 43 0.0 0.0 0.00 0.00 0.00 12 996.7
20260507161749 42 0.0 0.0 0.00 0.00 0.00 14 997.1
20260507160749 47 0.0 0.0 0.00 0.00 0.00 10 995.8
20260507155749 45 0.0 0.0 0.00 0.00 0.00 12 996.3
20260507154750 46 0.0 0.0 0.00 0.00 0.00 12 996.1
20260507153749 48 0.0 0.0 0.00 0.00 0.00 10 995.7
20260507152750 49 0.0 0.0 0.00 0.00 0.00 9 995.2
20260507151749 51 0.0 0.0 0.00 0.00 0.00 8 994.8
20260507150749 49 0.0 0.0 0.00 0.00 0.00 9 995.4
20260507145749 44 0.0 0.0 0.00 0.00 0.00 12 996.8
20260507144749 45 0.0 0.0 0.00 0.00 0.00 13 996.7
20260507143749 45 0.0 0.0 0.00 0.00 0.00 11 996.4
20260507142749 48 0.0 0.0 0.00 0.00 0.00 9 995.8
20260507141749 43 0.0 0.0 0.00 0.00 0.00 12 997.0
20260507140750 47 0.0 0.0 0.00 0.00 0.00 10 996.2
20260507135749 47 0.0 0.0 0.00 0.00 0.00 10 996.4
20260507134749 45 0.0 0.0 0.00 0.00 0.00 11 996.9
20260507133749 45 0.0 0.0 0.00 0.00 0.00 10 997.0
20260507132750 49 0.0 0.0 0.00 0.00 0.00 9 996.2
20260507131749 48 0.0 0.0 0.00 0.00 0.00 9 996.5
20260507130749 43 0.0 0.0 0.00 0.00 0.00 12 997.8
20260507125750 46 0.0 0.0 0.00 0.00 0.00 11 997.3
20260507124749 46 0.0 0.0 0.00 0.00 0.00 11 997.4
20260507123749 46 0.0 0.0 0.00 0.00 0.00 11 997.5
20260507122749 46 0.0 0.0 0.00 0.00 0.00 11 997.6
20260507121749 44 0.0 0.0 0.00 0.00 0.00 13 998.3
20260507120749 46 0.0 0.0 0.00 0.00 0.00 12 997.8
20260507115750 42 0.0 0.0 0.00 0.00 0.00 14 999.0
20260507114749 46 0.0 0.0 0.00 0.00 0.00 11 998.2
20260507113750 40 0.0 0.0 0.00 0.00 0.00 15 999.9
20260507112749 43 0.0 0.0 0.00 0.00 0.00 13 998.9
20260507111749 46 0.0 0.0 0.00 0.00 0.00 12 998.5
20260507110750 43 0.0 0.0 0.00 0.00 0.00 13 999.2
20260507105749 39 0.0 0.0 0.00 0.00 0.00 16 1000.2
20260507104749 42 0.0 0.0 0.00 0.00 0.00 14 999.9
20260507103749 47 0.0 0.0 0.00 0.00 0.00 12 998.7
20260507102749 46 0.0 0.0 0.00 0.00 0.00 12 998.8
20260507101749 38 0.0 0.0 0.00 0.00 0.00 17 1001.0
20260507100749 49 0.0 0.0 0.00 0.00 0.00 11 998.3
20260507095749 41 0.0 0.0 0.00 0.00 0.00 16 1000.3
20260507094749 43 0.0 0.0 0.00 0.00 0.00 14 999.9
20260507093749 38 0.0 0.0 0.00 0.00 0.00 17 1001.1
20260507092749 38 0.0 0.0 0.00 0.00 0.00 18 1001.2
20260507091749 41 0.0 0.0 0.00 0.00 0.00 16 1000.3
20260507090749 41 0.0 0.0 0.00 0.00 0.00 16 1000.6
20260507085749 38 0.0 0.0 0.00 0.00 0.00 18 1001.2
20260507084749 45 0.0 0.0 0.00 0.00 0.00 13 999.6
20260507083749 42 0.0 0.0 0.00 0.00 0.00 15 1000.3
20260507082749 43 0.0 0.0 0.00 0.00 0.00 14 999.8
20260507081749 40 0.0 0.0 0.00 0.00 0.00 17 1000.9
20260507080749 39 0.0 0.0 0.00 0.00 0.00 17 1001.1
20260507075749 36 0.0 0.0 0.00 0.00 0.00 19 1002.0
20260507074749 40 0.0 0.0 0.00 0.00 0.00 16 1001.0
20260507073749 39 0.0 0.0 0.00 0.00 0.00 17 1001.2
20260507072749 40 0.0 0.0 0.00 0.00 0.00 16 1001.1
20260507071749 38 0.0 0.0 0.00 0.00 0.00 18 1001.4
20260507070749 40 0.0 0.0 0.00 0.00 0.00 16 1000.9
20260507065749 39 0.0 0.0 0.00 0.00 0.00 17 1001.1
20260507064749 40 0.0 0.0 0.00 0.00 0.00 16 1001.0
20260507063749 42 0.0 0.0 0.00 0.00 0.00 14 1000.3
20260507062749 38 0.0 0.0 0.00 0.00 0.00 17 1001.3
20260507061749 34 0.0 0.0 0.00 0.00 0.00 20 1002.4